Hawk — LAGF7 — position and weather

sailwx.info

Track history (hours):
 
Tides and Currents Weather Stations Pressure Air Temp Water Temp Dewpoint Dewpoint Depression Visibility Wind Speed Wind Dir Waves Ship Positions

Hawk

Last reported at 2014-Oct-27 16:33 UTC. Time now 2014-Nov-01 03:29 UTC.
Position N 36°54' E 001°57'.

Length 223 m; draft 10.8 m.

Type: Cargo ship. MMSI: 259848000.

Date/timePositionNaut miles runAvg speedWind from/ knotsBaromVisibWave heightAir tempDewpointWater temp
2014-Oct-27 16:33N 36°54' E 001°57'1211.0
2014-Oct-27 15:29N 36°51' E 001°43'1111.5
2014-Oct-27 14:33N 36°49' E 001°30'1211.6
2014-Oct-27 13:33N 36°46' E 001°16'1311.8
2014-Oct-27 12:27N 36°45' E 000°60'3310.0
2014-Oct-27 09:10N 36°39' E 000°19'811.5
2014-Oct-27 08:27N 36°37' E 000°09'2211.2
2014-Oct-27 06:30N 36°33' W 000°17'1111.1
2014-Oct-27 05:33N 36°31' W 000°30'1210.8
2014-Oct-27 04:26N 36°29' W 000°45'1010.9
2014-Oct-27 03:32N 36°27' W 000°57'1111.1
2014-Oct-27 02:33N 36°25' W 001°10'1411.4
2014-Oct-27 01:22N 36°23' W 001°27'1011.7
2014-Oct-27 00:32N 36°21' W 001°39'1212.3
2014-Oct-26 23:33N 36°19' W 001°53'1312.1
2014-Oct-26 22:29N 36°17' W 002°09'14611.3
2014-Oct-26 09:33N 36°00' W 005°09'1010.3
2014-Oct-26 08:33N 36°03' W 005°21'7 1.5
2014-Oct-26 04:10N 36°10' W 005°23'0 0.0
2014-Oct-26 03:28N 36°10' W 005°23'0 0.0
2014-Oct-26 02:28N 36°10' W 005°23'0 0.2
2014-Oct-26 01:31N 36°10' W 005°23'0 0.1
2014-Oct-26 00:16N 36°10' W 005°23'0 0.0
2014-Oct-25 23:31N 36°10' W 005°23'0 0.1
2014-Oct-25 22:28N 36°10' W 005°23'0 0.0
2014-Oct-25 20:28N 36°10' W 005°23'0 0.0
2014-Oct-25 18:04N 36°10' W 005°23'0 0.1
2014-Oct-25 17:31N 36°10' W 005°23'0 0.1
2014-Oct-25 16:16N 36°10' W 005°23'0 0.1
2014-Oct-25 15:28N 36°10' W 005°23'0 0.1
2014-Oct-25 14:28N 36°10' W 005°23'0 0.0
2014-Oct-25 13:31N 36°10' W 005°23'0 0.0
2014-Oct-25 12:25N 36°10' W 005°23'0 0.0
2014-Oct-25 11:28N 36°10' W 005°23'0 0.0
2014-Oct-25 10:28N 36°10' W 005°23'0 0.1
2014-Oct-25 09:10N 36°10' W 005°23'0 0.1
2014-Oct-25 08:31N 36°10' W 005°23'0 0.0
2014-Oct-25 07:16N 36°10' W 005°23'0 0.1
2014-Oct-25 06:31N 36°10' W 005°23'0 0.0
2014-Oct-25 05:33N 36°10' W 005°23'0 0.1
2014-Oct-25 04:31N 36°10' W 005°23'0 0.1
2014-Oct-25 03:33N 36°10' W 005°23'0 0.0
2014-Oct-25 02:33N 36°10' W 005°23'0 0.1
2014-Oct-25 01:33N 36°10' W 005°23'0 0.0
2014-Oct-25 00:33N 36°10' W 005°23'0 0.1
2014-Oct-24 23:33N 36°10' W 005°23'0 0.1
2014-Oct-24 22:33N 36°10' W 005°23'3 3.3
2014-Oct-24 21:32N 36°06' W 005°23'7 7.0
2014-Oct-24 20:33N 36°07' W 005°14'1 0.9
2014-Oct-24 19:33N 36°07' W 005°13'0 0.5
2014-Oct-24 18:33N 36°07' W 005°14'2 2.2
2014-Oct-24 17:33N 36°07' W 005°16'2 0.9
2014-Oct-24 15:33N 36°05' W 005°15'1 0.5
2014-Oct-24 14:33N 36°05' W 005°14'1 1.0
2014-Oct-24 13:33N 36°04' W 005°15'1 1.1
2014-Oct-24 12:33N 36°05' W 005°16'1 0.7
2014-Oct-24 11:33N 36°06' W 005°16'4 3.7
2014-Oct-24 10:33N 36°05' W 005°20'6 6.3
2014-Oct-24 09:33N 35°59' W 005°24'7811.1
2014-Oct-24 02:33N 36°01' W 007°00'2711.5
2014-Oct-24 00:14N 36°08' W 007°32'4711.8
2014-Oct-23 20:18N 36°22' W 008°27'911.6
2014-Oct-23 19:33N 36°24' W 008°38'1212.0
2014-Oct-23 18:33N 36°28' W 008°52'1211.7
2014-Oct-23 17:33N 36°31' W 009°06'2611.8
2014-Oct-23 15:20N 36°46' W 009°32'1213.2
2014-Oct-23 14:25N 36°58' W 009°36'1112.3
2014-Oct-23 13:33N 37°09' W 009°39'1212.1
2014-Oct-23 12:33N 37°20' W 009°43'1212.0
2014-Oct-23 11:33N 37°32' W 009°46'1212.0
2014-Oct-23 10:33N 37°44' W 009°49'1212.0
2014-Oct-23 09:33N 37°55' W 009°53'1211.9
2014-Oct-23 08:33N 38°07' W 009°56'1212.0
2014-Oct-23 07:33N 38°19' W 009°60'1212.2
2014-Oct-23 06:33N 38°30' W 010°04'1212.2
2014-Oct-23 05:33N 38°42' W 010°07'1312.6
2014-Oct-23 04:33N 38°55' W 010°07'1312.8
2014-Oct-23 03:33N 39°08' W 010°08'1212.3
2014-Oct-23 02:33N 39°20' W 010°08'1212.1
2014-Oct-23 01:33N 39°32' W 010°11'1212.0
2014-Oct-23 00:33N 39°44' W 010°14'  
Track history (hours):
 
Tides and Currents Weather Stations Pressure Air Temp Water Temp Dewpoint Dewpoint Depression Visibility Wind Speed Wind Dir Waves Ship Positions

Hawk

Last reported at 2014-Oct-27 16:33 UTC. Time now 2014-Nov-01 03:29 UTC.
Position N 36°54' E 001°57'.

Length 223 m; draft 10.8 m.

Type: Cargo ship. MMSI: 259848000.

Date/timePositionNaut miles runAvg speedWind from/ knotsBaromVisibWave heightAir tempDewpointWater temp
2014-Oct-27 16:33N 36°54' E 001°57'1211.0
2014-Oct-27 15:29N 36°51' E 001°43'1111.5
2014-Oct-27 14:33N 36°49' E 001°30'1211.6
2014-Oct-27 13:33N 36°46' E 001°16'1311.8
2014-Oct-27 12:27N 36°45' E 000°60'3310.0
2014-Oct-27 09:10N 36°39' E 000°19'811.5
2014-Oct-27 08:27N 36°37' E 000°09'2211.2
2014-Oct-27 06:30N 36°33' W 000°17'1111.1
2014-Oct-27 05:33N 36°31' W 000°30'1210.8
2014-Oct-27 04:26N 36°29' W 000°45'1010.9
2014-Oct-27 03:32N 36°27' W 000°57'1111.1
2014-Oct-27 02:33N 36°25' W 001°10'1411.4
2014-Oct-27 01:22N 36°23' W 001°27'1011.7
2014-Oct-27 00:32N 36°21' W 001°39'1212.3
2014-Oct-26 23:33N 36°19' W 001°53'1312.1
2014-Oct-26 22:29N 36°17' W 002°09'14611.3
2014-Oct-26 09:33N 36°00' W 005°09'1010.3
2014-Oct-26 08:33N 36°03' W 005°21'7 1.5
2014-Oct-26 04:10N 36°10' W 005°23'0 0.0
2014-Oct-26 03:28N 36°10' W 005°23'0 0.0
2014-Oct-26 02:28N 36°10' W 005°23'0 0.2
2014-Oct-26 01:31N 36°10' W 005°23'0 0.1
2014-Oct-26 00:16N 36°10' W 005°23'0 0.0
2014-Oct-25 23:31N 36°10' W 005°23'0 0.1
2014-Oct-25 22:28N 36°10' W 005°23'0 0.0
2014-Oct-25 20:28N 36°10' W 005°23'0 0.0
2014-Oct-25 18:04N 36°10' W 005°23'0 0.1
2014-Oct-25 17:31N 36°10' W 005°23'0 0.1
2014-Oct-25 16:16N 36°10' W 005°23'0 0.1
2014-Oct-25 15:28N 36°10' W 005°23'0 0.1
2014-Oct-25 14:28N 36°10' W 005°23'0 0.0
2014-Oct-25 13:31N 36°10' W 005°23'0 0.0
2014-Oct-25 12:25N 36°10' W 005°23'0 0.0
2014-Oct-25 11:28N 36°10' W 005°23'0 0.0
2014-Oct-25 10:28N 36°10' W 005°23'0 0.1
2014-Oct-25 09:10N 36°10' W 005°23'0 0.1
2014-Oct-25 08:31N 36°10' W 005°23'0 0.0
2014-Oct-25 07:16N 36°10' W 005°23'0 0.1
2014-Oct-25 06:31N 36°10' W 005°23'0 0.0
2014-Oct-25 05:33N 36°10' W 005°23'0 0.1
2014-Oct-25 04:31N 36°10' W 005°23'0 0.1
2014-Oct-25 03:33N 36°10' W 005°23'0 0.0
2014-Oct-25 02:33N 36°10' W 005°23'0 0.1
2014-Oct-25 01:33N 36°10' W 005°23'0 0.0
2014-Oct-25 00:33N 36°10' W 005°23'0 0.1
2014-Oct-24 23:33N 36°10' W 005°23'0 0.1
2014-Oct-24 22:33N 36°10' W 005°23'3 3.3
2014-Oct-24 21:32N 36°06' W 005°23'7 7.0
2014-Oct-24 20:33N 36°07' W 005°14'1 0.9
2014-Oct-24 19:33N 36°07' W 005°13'0 0.5
2014-Oct-24 18:33N 36°07' W 005°14'2 2.2
2014-Oct-24 17:33N 36°07' W 005°16'2 0.9
2014-Oct-24 15:33N 36°05' W 005°15'1 0.5
2014-Oct-24 14:33N 36°05' W 005°14'1 1.0
2014-Oct-24 13:33N 36°04' W 005°15'1 1.1
2014-Oct-24 12:33N 36°05' W 005°16'1 0.7
2014-Oct-24 11:33N 36°06' W 005°16'4 3.7
2014-Oct-24 10:33N 36°05' W 005°20'6 6.3
2014-Oct-24 09:33N 35°59' W 005°24'7811.1
2014-Oct-24 02:33N 36°01' W 007°00'2711.5
2014-Oct-24 00:14N 36°08' W 007°32'4711.8
2014-Oct-23 20:18N 36°22' W 008°27'911.6
2014-Oct-23 19:33N 36°24' W 008°38'1212.0
2014-Oct-23 18:33N 36°28' W 008°52'1211.7
2014-Oct-23 17:33N 36°31' W 009°06'2611.8
2014-Oct-23 15:20N 36°46' W 009°32'1213.2
2014-Oct-23 14:25N 36°58' W 009°36'1112.3
2014-Oct-23 13:33N 37°09' W 009°39'1212.1
2014-Oct-23 12:33N 37°20' W 009°43'1212.0
2014-Oct-23 11:33N 37°32' W 009°46'1212.0
2014-Oct-23 10:33N 37°44' W 009°49'1212.0
2014-Oct-23 09:33N 37°55' W 009°53'1211.9
2014-Oct-23 08:33N 38°07' W 009°56'1212.0
2014-Oct-23 07:33N 38°19' W 009°60'1212.2
2014-Oct-23 06:33N 38°30' W 010°04'1212.2
2014-Oct-23 05:33N 38°42' W 010°07'1312.6
2014-Oct-23 04:33N 38°55' W 010°07'1312.8
2014-Oct-23 03:33N 39°08' W 010°08'1212.3
2014-Oct-23 02:33N 39°20' W 010°08'1212.1
2014-Oct-23 01:33N 39°32' W 010°11'1212.0
2014-Oct-23 00:33N 39°44' W 010°14'  

Dump ship's entire track history